Aeroporto :
LOGIN :

Iscrizione | Disclaimer

   EN    FR    IT 

 










Sommario :    VFR   VFR Marginale   IFR   IFR Intensivo   IFR Molto Intensivo
Visibilità : 
Base nubi : 
>= 8 km
>= 3000ft
5 / 8 km
1000 / 3000 ft
1500m / 5 km
500 / 1000 ft
800 / 1500m
200 / 500 ft
< 800m
< 200 ft
Simboli :   Temporali  Nebbia  Neve Forte  Precipitazioni Forti  Vento > 20 kt
SIGMETs :   Varie  Temporali  Ghiacco  Turbolenza  Onda orograficha  Ceneri Vulcaniche






- Altitudine del aeroporto : 1325 ft
- Codice IATA : EBU


LFMH - St-Etienne Boutheon

ULTIMO METAR :
  • 210130Z AUTO 36012KT 9999 FEW010 BKN030 BKN036 01/M01 Q1029

METARs OBSOLETI :
  • 210100Z AUTO 36011KT 9999 FEW007 BKN031 OVC052 01/M00 Q1029
  • 210030Z AUTO 36010KT 9999 FEW008 BKN032 OVC058 01/00 Q1029
  • 210000Z AUTO 36007KT 9999 FEW034 OVC056 01/00 Q1029
  • 202330Z AUTO 35008KT 9999 FEW030 BKN039 OVC045 02/00 Q1029
  • 202300Z AUTO 35006KT 9999 SCT031 BKN042 OVC054 02/00 Q1029

Previsioni scadute.
ATIS : +33 4 77 36 17 51



MetMap, La meteo Aeronautica in un colpo d'occhio ! - Copyright ORBIFLY Dicembre 2007 - Disclaimer

ORBIFLY MET'MAP TEAM :

Programmazione e sviluppo : Alexandra Zaïnal
Concezione : Baudouin d'Aumeries
Aiuto per la programmazione : Marc-Olivier Méhu
Supporto tecnico e logistico : Manuel Goepfert
Aiuto per la traduzione : Arnaldo La Scala

Contatto : metmap@orbifly.com




FONTI E CREDITI :

   NOAA